[[{"header":{"parameterUnit":"m.s-1","parameterCategory":1,"la1":30.2991,"la2":30.254,"lo1":-89.0895,"lo2":-89.0444,"dy":0.0017,"dx":0.0017,"nx":28,"ny":28,"refTime":"2024-08-11T15:00:00:Z","depth":0,"parameterNumber":2,"parameterNumberName":"U-component_of_WINDS"},"data":[0,0,0,0,0,0,0,0,0,0,0,0,0,0,0,0,0,0,0,0,0,0,0,0,0,0,0,0,0,0,0,0,0,0,0,0,0,0,0,0,0,0,0,0,0,0,0,0,0,0,0,0,0,0,0,0,0,0,-1.9466,-1.9466,0,-1.944,-1.944,-1.944,-1.9312,-1.9309,-1.9306,-1.9303,-1.9281,-1.9284,-1.9286,0,0,0,0,0,0,0,0,0,0,0,0,0,-1.9408,-1.941,-1.9466,-1.9466,-1.9465,-1.944,-1.944,-1.944,-1.9312,-1.9308,-1.9305,-1.9301,-1.9281,-1.9283,-1.9286,0,0,0,0,0,0,0,0,0,0,0,0,0,-1.9413,-1.941,-1.9466,-1.9399,-1.9392,-1.944,-1.944,-1.944,-1.9313,-1.9308,-1.9304,-1.93,-1.928,-1.9283,-1.9286,-1.9399,0,0,-1.9297,-1.9298,0,0,0,0,0,0,0,0,-1.9413,-1.9416,-1.9409,-1.9403,-1.9396,-1.9374,-1.9412,-1.9426,-1.9314,-1.9343,-1.9303,-1.9297,-1.9316,-1.9316,-1.9322,-1.9398,-1.9397,-1.9297,-1.9299,-1.9301,-1.9302,0,0,0,0,0,0,0,-1.9413,-1.9416,-1.9456,-1.9409,-1.9401,-1.9371,-1.9366,-1.9414,-1.9356,-1.934,-1.9331,-1.9329,-1.9312,-1.9319,-1.932,-1.9397,-1.9297,-1.93,-1.9302,-1.9303,-1.9564,-1.9568,0,0,0,0,0,0,-1.9421,-1.9416,-1.9457,-1.9455,-1.9393,-1.9376,-1.9371,-1.9386,-1.9355,-1.9346,-1.9333,-1.9324,-1.9315,-1.9317,-1.9319,-1.9449,-1.9301,-1.9304,-1.9306,-1.9559,-1.9565,-1.957,0,0,0,0,0,0,-1.9421,-1.9426,-1.9458,-1.9433,-1.9435,-1.9381,-1.94,-1.9388,-1.9395,-1.935,-1.9339,-1.9351,-1.9312,-1.9314,-1.938,-1.9447,-1.9305,-1.9308,-1.9553,-1.9561,-1.9567,-1.9711,0,0,0,0,0,0,-1.942,-1.9427,-1.9469,-1.9435,-1.9437,-1.9519,-1.9404,-1.9391,-1.94,-1.9387,-1.9363,-1.9355,-1.9308,-1.9375,-1.9383,-1.9449,-1.9311,-1.9547,-1.9556,-1.9565,-1.97,-1.9722,-1.9741,0,0,0,0,0,-1.9418,-1.9511,-1.9471,-1.9477,-1.9487,-1.9523,-1.9524,-1.9467,-1.9406,-1.9448,-1.9419,-1.9356,-1.9437,-1.9383,-1.9391,-1.9459,-1.9542,-1.9554,-1.9564,-1.9691,-1.9718,-1.9741,0,0,0,0,0,0,-1.9557,-1.9506,-1.9461,-1.9546,-1.9539,-1.9501,-1.9552,-1.9497,-1.9509,-1.9497,-1.9427,-1.9422,-1.9499,-1.9484,-1.9425,-1.9566,-1.9479,-1.9492,-1.9573,-1.9598,-1.9618,-1.9621,-1.9314,0,0,0,0,0,-1.9596,-1.9628,-1.9582,-1.9661,-1.966,-1.9607,-1.962,-1.9576,-1.9568,-1.9565,-1.954,-1.9535,-1.9559,-1.9577,-1.9597,-1.9696,-1.969,-1.9747,-1.9767,-1.9784,-1.9797,-1.9849,-1.9874,-1.9606,-1.9606,-1.9606,0,0,-1.9681,-1.9656,-1.9681,-1.9689,-1.9678,-1.9714,-1.9606,-1.9648,-1.9674,-1.9571,-1.9632,-1.9613,-1.9603,-1.9686,-1.9721,-1.9677,-1.9869,-1.9798,-1.9812,-1.9816,-1.9863,-1.9888,-1.9911,-1.9613,-1.9612,-1.9611,0,0,-1.9852,-1.9836,-1.99,-1.9891,-1.9876,-1.984,-1.9855,-1.9825,-1.9808,-1.9867,-1.9791,-1.9821,-1.9864,-1.986,-1.9864,-2.0031,-1.9973,-2.0039,-2.0148,-2.0199,-2.022,-2.0239,-2.03,-2.0323,-2.0051,-2.0052,-2.0052,0,-1.9959,-2.0008,-1.9941,-1.9988,-1.9994,-1.99,-1.9965,-1.996,-1.9953,-1.996,-1.991,-1.9961,-1.9948,-2.0028,-2.0069,-2.0074,-2.0091,-2.0043,-2.0222,-2.024,-2.0256,-2.0314,-2.0337,-2.006,-2.0059,-2.0058,-2.0057,0,-2.014,-2.0175,-2.0229,-2.0223,-2.0234,-2.029,-2.0233,-2.0253,-2.0207,-2.0177,-2.0238,-2.0217,-2.0232,-2.0247,-2.0204,-2.0322,-2.0295,-2.0234,-2.0146,-2.0291,-2.0344,-2.0366,-2.0072,-2.0069,-2.0066,-2.0064,0,0,-2.0402,-2.0355,-2.0377,-2.0372,-2.0347,-2.0374,-2.0425,-2.0437,-2.0456,-2.0453,-2.0496,-2.0534,-2.0477,-2.0481,-2.0436,-2.0481,-2.0616,-2.0415,-2.0413,-2.0455,-2.0746,-2.0794,-2.082,-2.0576,-2.058,-2.0583,-2.0747,0,-2.0567,-2.0651,-2.0592,-2.0687,-2.0718,-2.0628,-2.0673,-2.0663,-2.0635,-2.0659,-2.0628,-2.0657,-2.0579,-2.0581,-2.0621,-2.0591,-2.0674,-2.0578,-2.0618,-2.062,-2.0626,-2.0847,-2.0898,-2.1054,-2.0768,-2.0771,-2.0774,0,-2.0772,-2.0777,-2.0874,-2.0841,-2.0853,-2.0894,-2.0899,-2.0922,-2.091,-2.0886,-2.089,-2.0833,-2.0882,-2.0793,-2.0861,-2.0797,-2.0809,-2.0797,-2.0801,-2.0805,-2.0708,-2.086,-2.1102,-2.1127,-2.0805,-2.0803,-2.08,0,-2.0956,-2.0986,-2.1048,-2.1046,-2.101,-2.1041,-2.1027,-2.1009,-2.102,-2.1025,-2.1031,-2.1043,-2.105,-2.106,-2.1009,-2.0948,-2.1084,-2.099,-2.1067,-2.1069,-2.1103,-2.1102,-2.1353,-2.1106,-2.1106,-2.1106,-2.1105,0,-2.1148,-2.1212,-2.1129,-2.1168,-2.1237,-2.1167,-2.1238,-2.1215,-2.1199,-2.1233,-2.1155,-2.1189,-2.1116,-2.1143,-2.1102,-2.1165,-2.1169,-2.1152,-2.1141,-2.1161,-2.1164,-2.117,-2.1159,-2.1112,-2.111,-2.1109,-2.1108,0,-2.1366,-2.1313,-2.1375,-2.1334,-2.1325,-2.1378,-2.1343,-2.1378,-2.1342,-2.1386,-2.1392,-2.1339,-2.1366,-2.1313,-2.1334,-2.1307,-2.1396,-2.1367,-2.14,-2.1393,-2.1474,-2.1468,-2.1741,-2.1774,-2.1504,-2.1506,-2.1508,0,-2.1494,-2.1541,-2.1503,-2.1519,-2.1509,-2.1536,-2.1545,-2.1478,-2.1491,-2.1479,-2.1515,-2.1535,-2.1547,-2.1595,-2.1559,-2.1574,-2.1546,-2.164,-2.1548,-2.1566,-2.155,-2.1549,-2.1554,-2.1661,-2.1664,-2.1667,-2.1669,0,-2.1727,-2.1698,-2.1714,-2.172,-2.1733,-2.1736,-2.1733,-2.175,-2.1679,-2.1698,-2.1723,-2.1733,-2.1752,-2.1773,-2.178,-2.1767,-2.1708,-2.1697,-2.1717,-2.1739,-2.1757,-2.175,-2.1455,-2.1693,-2.169,-2.1688,-2.1687,-2.1686,-2.1905,-2.1942,-2.1921,-2.1941,-2.1931,-2.193,-2.196,-2.1928,-2.1947,-2.1956,-2.1915,-2.195,-2.1935,-2.1936,-2.193,-2.1957,-2.1915,-2.1942,-2.195,-2.1958,-2.1972,-2.175,-2.1958,-2.1957,-2.1956,-2.1955,-2.1955,0,-2.2136,-2.2117,-2.2136,-2.2133,-2.2149,-2.2087,-2.208,-2.2099,-2.2129,-2.2119,-2.2132,-2.2161,-2.218,-2.2145,-2.2159,-2.2188,-2.2161,-2.2194,-2.2193,-2.2191,-2.2008,-2.1991,-2.2215,-2.2215,-2.2215,-2.2215,-2.2215,-2.2215,-2.2259,-2.2318,-2.2286,-2.234,-2.232,-2.2352,-2.2353,-2.2352,-2.2343,-2.2379,-2.2394,-2.2369,-2.2349,-2.236,-2.2376,-2.2365,-2.2375,-2.2419,-2.2399,-2.2229,-2.2204,-2.218,-2.2164,-2.2421,-2.2421,-2.258,-2.2581,-2.2582]},{"header":{"parameterUnit":"m.s-1","parameterCategory":1,"la1":30.2991,"la2":30.254,"lo1":-89.0895,"lo2":-89.0444,"dy":0.0017,"dx":0.0017,"nx":28,"ny":28,"refTime":"2024-08-11T15:00:00:Z","depth":0,"parameterNumber":3,"parameterNumberName":"V-component_of_WINDS"},"data":[0,0,0,0,0,0,0,0,0,0,0,0,0,0,0,0,0,0,0,0,0,0,0,0,0,0,0,0,0,0,0,0,0,0,0,0,0,0,0,0,0,0,0,0,0,0,0,0,0,0,0,0,0,0,0,0,0,0,-3.5519,-3.5519,0,-3.5575,-3.5575,-3.5576,-3.5522,-3.552,-3.5518,-3.5516,-3.5569,-3.5572,-3.5576,0,0,0,0,0,0,0,0,0,0,0,0,0,-3.5361,-3.5364,-3.5519,-3.5519,-3.552,-3.5574,-3.5575,-3.5576,-3.5523,-3.552,-3.5518,-3.5515,-3.5568,-3.5572,-3.5576,0,0,0,0,0,0,0,0,0,0,0,0,0,-3.5424,-3.5365,-3.5519,-3.55,-3.5499,-3.5574,-3.5575,-3.5576,-3.5523,-3.552,-3.5517,-3.5514,-3.5567,-3.5571,-3.5576,-3.5671,0,0,-3.5592,-3.5594,0,0,0,0,0,0,0,0,-3.5421,-3.543,-3.5502,-3.5502,-3.5501,-3.5538,-3.5539,-3.5608,-3.5524,-3.5514,-3.5516,-3.5513,-3.5561,-3.5566,-3.5584,-3.5674,-3.5676,-3.5592,-3.5595,-3.5598,-3.5599,0,0,0,0,0,0,0,-3.5416,-3.5427,-3.5541,-3.5503,-3.5502,-3.5487,-3.5493,-3.5552,-3.5554,-3.5515,-3.5511,-3.5519,-3.556,-3.5579,-3.5584,-3.5677,-3.5592,-3.5597,-3.56,-3.5602,-3.5845,-3.5848,0,0,0,0,0,0,-3.5415,-3.5424,-3.5539,-3.5542,-3.5452,-3.5493,-3.5499,-3.5529,-3.5554,-3.5555,-3.5521,-3.5516,-3.5572,-3.5579,-3.5586,-3.5698,-3.5598,-3.5602,-3.5605,-3.5842,-3.5846,-3.585,0,0,0,0,0,0,-3.5412,-3.5425,-3.5537,-3.5482,-3.5495,-3.5499,-3.5533,-3.5532,-3.5551,-3.5559,-3.5558,-3.554,-3.557,-3.5579,-3.565,-3.5699,-3.5605,-3.5609,-3.5838,-3.5843,-3.5848,-3.5922,0,0,0,0,0,0,-3.5407,-3.5425,-3.5462,-3.5484,-3.5498,-3.5602,-3.5536,-3.5536,-3.556,-3.5554,-3.5577,-3.5577,-3.5568,-3.5643,-3.5655,-3.5704,-3.5613,-3.5833,-3.584,-3.5846,-3.5915,-3.5929,-3.5941,0,0,0,0,0,-3.5402,-3.548,-3.5464,-3.5478,-3.5545,-3.5605,-3.5613,-3.5602,-3.5565,-3.5601,-3.5606,-3.5577,-3.5692,-3.5651,-3.5664,-3.5715,-3.583,-3.5838,-3.5846,-3.5909,-3.5926,-3.594,0,0,0,0,0,0,-3.5462,-3.5482,-3.5465,-3.5553,-3.5578,-3.5595,-3.5641,-3.562,-3.5655,-3.5647,-3.563,-3.5636,-3.5711,-3.572,-3.5674,-3.5807,-3.5755,-3.5765,-3.5798,-3.5815,-3.5827,-3.5823,-3.5617,0,0,0,0,0,-3.5486,-3.5534,-3.5548,-3.5624,-3.5638,-3.5638,-3.5663,-3.5652,-3.5677,-3.5686,-3.5696,-3.572,-3.5761,-3.5788,-3.5826,-3.5916,-3.5919,-3.5958,-3.597,-3.5981,-3.599,-3.6037,-3.6054,-3.5875,-3.5875,-3.5875,0,0,-3.5536,-3.5552,-3.5584,-3.5637,-3.5655,-3.5703,-3.5647,-3.5701,-3.5736,-3.5694,-3.5762,-3.577,-3.5795,-3.5876,-3.5912,-3.5885,-3.604,-3.5991,-3.5999,-3.6003,-3.6046,-3.6063,-3.6078,-3.588,-3.5879,-3.5878,0,0,-3.565,-3.5668,-3.5733,-3.5752,-3.5781,-3.578,-3.5795,-3.5817,-3.5821,-3.5889,-3.5859,-3.5899,-3.5971,-3.599,-3.6008,-3.6129,-3.6103,-3.6142,-3.6209,-3.6254,-3.6269,-3.6281,-3.6323,-3.6338,-3.6151,-3.6152,-3.6152,0,-3.5707,-3.5781,-3.5769,-3.5825,-3.5849,-3.5814,-3.5879,-3.5897,-3.5936,-3.5953,-3.5923,-3.6012,-3.6026,-3.611,-3.614,-3.6156,-3.6172,-3.6139,-3.6268,-3.628,-3.6291,-3.6331,-3.6347,-3.6156,-3.6156,-3.6155,-3.6155,0,-3.5849,-3.59,-3.5949,-3.5989,-3.6018,-3.6078,-3.6073,-3.6104,-3.609,-3.6092,-3.6161,-3.6177,-3.6218,-3.6237,-3.6224,-3.6319,-3.6302,-3.6271,-3.6217,-3.6313,-3.635,-3.6365,-3.6162,-3.6161,-3.616,-3.6158,0,0,-3.6003,-3.6036,-3.6054,-3.6071,-3.6099,-3.6138,-3.6195,-3.6236,-3.6262,-3.629,-3.6337,-3.6398,-3.6369,-3.639,-3.6379,-3.6419,-3.6512,-3.6383,-3.6383,-3.6405,-3.6617,-3.6639,-3.6658,-3.6496,-3.6498,-3.6501,-3.6614,0,-3.6118,-3.622,-3.621,-3.6306,-3.6353,-3.632,-3.637,-3.6392,-3.6395,-3.6433,-3.6436,-3.6479,-3.6438,-3.6451,-3.6489,-3.6493,-3.6554,-3.6485,-3.6537,-3.6539,-3.6532,-3.6677,-3.6702,-3.6808,-3.6629,-3.6631,-3.6633,0,-3.6265,-3.6299,-3.6401,-3.6421,-3.644,-3.6486,-3.6522,-3.6559,-3.6583,-3.6582,-3.6606,-3.6587,-3.6643,-3.6589,-3.6665,-3.6618,-3.6639,-3.6644,-3.6648,-3.6652,-3.6592,-3.6684,-3.6842,-3.6858,-3.6656,-3.6654,-3.6652,0,-3.6366,-3.6438,-3.6507,-3.6523,-3.6549,-3.6581,-3.6593,-3.6614,-3.6639,-3.667,-3.6685,-3.6722,-3.6742,-3.677,-3.6761,-3.6723,-3.6839,-3.6784,-3.6838,-3.6839,-3.6864,-3.6862,-3.7026,-3.6879,-3.6878,-3.6878,-3.6878,0,-3.6495,-3.6558,-3.6553,-3.6595,-3.6664,-3.6652,-3.672,-3.6727,-3.6746,-3.6788,-3.6762,-3.6801,-3.6788,-3.6826,-3.6819,-3.6883,-3.6892,-3.6892,-3.6889,-3.6894,-3.6894,-3.6907,-3.6899,-3.6882,-3.6881,-3.688,-3.688,0,-3.6619,-3.6619,-3.6692,-3.6711,-3.6717,-3.6767,-3.6782,-3.6821,-3.6822,-3.6876,-3.6887,-3.6888,-3.6932,-3.6927,-3.6975,-3.697,-3.7049,-3.7038,-3.7042,-3.7039,-3.7093,-3.7087,-3.727,-3.7293,-3.7131,-3.7133,-3.7134,0,-3.6701,-3.6749,-3.6773,-3.6801,-3.6815,-3.6859,-3.6885,-3.6874,-3.6901,-3.6931,-3.6966,-3.7008,-3.7041,-3.7112,-3.7116,-3.7153,-3.7142,-3.7203,-3.7147,-3.715,-3.7141,-3.7138,-3.7142,-3.7214,-3.7216,-3.7217,-3.7219,0,-3.6846,-3.6844,-3.6882,-3.6921,-3.6953,-3.6982,-3.7009,-3.7032,-3.7024,-3.7055,-3.7101,-3.7126,-3.7176,-3.7217,-3.7252,-3.7262,-3.7239,-3.7236,-3.7251,-3.7256,-3.7256,-3.7255,-3.7071,-3.7232,-3.7231,-3.723,-3.7229,-3.7228,-3.6951,-3.6992,-3.7015,-3.7059,-3.7078,-3.7104,-3.7141,-3.7147,-3.7185,-3.7226,-3.7217,-3.7268,-3.7288,-3.7332,-3.7346,-3.7385,-3.7362,-3.7383,-3.7388,-3.7393,-3.7399,-3.725,-3.7391,-3.739,-3.739,-3.739,-3.7389,0,-3.7094,-3.7107,-3.7148,-3.7187,-3.7221,-3.7197,-3.7225,-3.7255,-3.73,-3.7322,-3.7356,-3.7407,-3.7447,-3.7454,-3.7491,-3.752,-3.751,-3.753,-3.7528,-3.753,-3.7418,-3.7401,-3.7538,-3.7538,-3.7538,-3.7538,-3.7538,-3.7538,-3.7172,-3.7239,-3.7239,-3.7315,-3.7327,-3.7378,-3.7396,-3.7419,-3.7436,-3.7495,-3.7529,-3.7534,-3.7549,-3.7587,-3.7622,-3.7623,-3.7637,-3.7662,-3.7658,-3.7553,-3.7538,-3.7524,-3.7508,-3.7665,-3.7665,-3.7767,-3.7768,-3.7769]}]]